This demonstration page uses our WeatherBlox Daily Observations layout. Learn more.

Left ArrowRight Arrow

Hourly Observations for January 8, 2022

Temp ( °F °C ) Dew Point ( °F °C ) Humidity (%) Winds ( mph kmh ) Pressure ( in mb ) Visibility ( mi km ) Precip ( " mm )
12:53 am 00:53 Cloudy 47 8.3 35 1.7 63 63 S 10 17 30.06 1018 10 16 0.00 0.00
1:53 am 01:53 Cloudy 47 8.3 38 3.3 71 71 S 12 19 30.04 1017 10 16 0.00 0.00
2:53 am 02:53 Cloudy 47 8.3 40 4.4 77 77 S 12 19 30.03 1017 10 16 0.00 0.00
3:16 am 03:16 Cloudy 46 7.8 41 5 83 83 SSE 10 17 30.04 1017 9 14 0.00 0.00
3:53 am 03:53 Cloudy 46 7.8 42 5.6 86 86 S 9 15 30.02 1017 8 13 0.00 0.00
4:53 am 04:53 Cloudy 47 8.3 42 5.6 83 83 SSE 9 15 30.01 1016 9 14 0.00 0.00
5:53 am 05:53 Cloudy 47 8.3 42 5.6 83 83 SSE 9 15 30.01 1016 9 14 0.00 0.00
6:53 am 06:53 Cloudy with Light Rain 46 7.8 43 6.1 89 89 SSE 8 13 30.01 1016 6 10 0.00 0.00
7:11 am 07:11 Cloudy 46 7.8 44 6.7 93 93 SSE 6 9 30.03 1017 7 11 0.00 0.00
7:53 am 07:53 Cloudy with Mist and Fog 46 7.8 44 6.7 93 93 S 9 15 30.03 1017 5 8 0.00 0.00
8:01 am 08:01 Cloudy with Light Rain 46 7.8 44 6.7 93 93 SSE 9 15 30.04 1017 3 4 0.01 0.25
8:18 am 08:18 Cloudy with Light Rain 46 7.8 44 6.7 93 93 SSE 8 13 30.04 1017 3 5 0.01 0.25
8:53 am 08:53 Cloudy with Mist and Fog 46 7.8 45 7.2 96 96 S 6 9 30.03 1017 4 6 0.02 0.51
9:25 am 09:25 Cloudy with Mist and Fog 46 7.8 45 7.2 96 96 SSE 9 15 30.04 1017 3 4 0.00 0.00
9:53 am 09:53 Cloudy with Mist and Fog 47 8.3 46 7.8 97 97 SSE 8 13 30.03 1017 3 5 0.00 0.00
10:53 am 10:53 Cloudy with Mist and Fog 49 9.4 47 8.3 93 93 SE 7 11 30.01 1016 3 5 0.00 0.00
10:56 am 10:56 Cloudy with Mist and Fog 48 9 46 8 94 94 SE 7 11 30.02 1017 3 4 0.00 0.00
11:47 am 11:47 Cloudy with Mist and Fog 48 9 48 9 100 100 SSE 9 15 30.01 1016 2 3 0.00 0.00
11:53 am 11:53 Cloudy with Mist and Fog 49 9.4 48 8.9 97 97 SSE 8 13 29.99 1016 2 2 0.00 0.00
11:56 am 11:56 Cloudy with Mist and Fog 49 9.4 49 9.4 100 100 SSE 8 13 30.00 1016 2 3 0.00 0.00
12:07 pm 12:07 Cloudy with Mist and Fog 49 9.4 49 9.4 100 100 SSE 6 9 30.00 1016 2 2 0.00 0.00
12:47 pm 12:47 Cloudy with Mist and Fog 48 9 48 9 100 100 SE 7 11 29.98 1015 1 1 0.00 0.00
12:53 pm 12:53 Cloudy with Mist and Fog 49 9.4 49 9.4 100 100 SE 6 9 29.96 1015 1 1 0.00 0.00
1:32 pm 13:32 Cloudy with Light Rain 50 10 50 10 100 100 SSE 5 7 29.96 1014 1 2 0.01 0.25
1:53 pm 13:53 Cloudy with Light Rain 51 10.6 51 10.6 100 100 S 6 9 29.93 1014 2 2 0.01 0.25
2:15 pm 14:15 Cloudy with Drizzle 51 10.6 51 10.6 100 100 S 7 11 29.94 1014 2 2 0.00 0.00
2:53 pm 14:53 Cloudy with Mist and Fog 52 11.1 52 11.1 100 100 S 5 7 29.91 1013 2 3 0.00 0.00
3:04 pm 15:04 Cloudy with Mist and Fog 54 12 54 12 100 100 SSE 6 9 29.90 1013 2 3 0.00 0.00
3:53 pm 15:53 Cloudy with Mist and Fog 55 12.8 54 12.2 96 96 SSE 8 13 29.89 1012 3 5 0.00 0.00
4:50 pm 16:50 Cloudy with Mist and Fog 55 13 55 13 100 100 SSE 9 15 29.90 1013 1 2 0.00 0.00
4:53 pm 16:53 Cloudy with Mist and Fog 56 13.3 55 12.8 97 97 SSE 8 13 29.90 1012 1 2 0.00 0.00
5:49 pm 17:49 Cloudy with Fog 55 13 55 13 100 100 SE 9 15 29.90 1013 1 1 0.00 0.00
5:53 pm 17:53 Cloudy with Fog 56 13.3 56 13.3 100 100 SSE 9 15 29.90 1013 1 1 0.00 0.00
6:40 pm 18:40 Cloudy with Mist and Fog 57 14 57 14 100 100 S 8 13 29.92 1013 2 2 0.00 0.00
6:53 pm 18:53 Cloudy with Mist and Fog 58 14.4 58 14.4 100 100 S 8 13 29.92 1013 2 2 0.00 0.00
7:41 pm 19:41 Cloudy with Mist and Fog 60 15.6 60 15.6 100 100 S 5 7 29.95 1014 3 5 0.00 0.00
7:53 pm 19:53 Cloudy with Mist and Fog 60 15.6 60 15.6 100 100 S 8 13 29.94 1014 4 6 0.00 0.00
8:00 pm 20:00 Cloudy with Mist and Fog 60 15.6 60 15.6 100 100 SSE 7 11 29.95 1014 5 8 0.00 0.00
8:53 pm 20:53 Cloudy 63 17.2 61 16.1 93 93 S 12 19 29.95 1014 7 11 0.00 0.00
9:53 pm 21:53 Cloudy 63 17.2 61 16.1 93 93 S 10 17 29.95 1014 10 16 0.00 0.00
10:53 pm 22:53 Cloudy 63 17.2 60 15.6 90 90 SSW 8 13 29.97 1015 10 16 0.00 0.00
11:06 pm 23:06 Cloudy 63 17.2 60 15.6 90 90 SSW 10 17 29.97 1015 10 16 0.00 0.00
11:28 pm 23:28 Cloudy 63 17.2 59 15 87 87 SSW 9 15 29.96 1015 10 16 0.00 0.00
11:53 pm 23:53 Cloudy 62 16.7 59 15 90 90 SSW 9 15 29.97 1015 10 16 0.00 0.00

Powered by AerisWeather